TimeCDT,TemperatureF,Dew PointF,Humidity,Sea Level PressureIn,VisibilityMPH,Wind Direction,Wind SpeedMPH,Gust SpeedMPH,PrecipitationIn,Events,Conditions,WindDirDegrees,DateUTC
12:15 AM,37.8,35.6,92,29.63,0.2,South,10.4,-,N/A,Fog,Fog,190,2013-03-11 05:15:00
12:35 AM,37.6,35.6,93,29.62,0.2,SSW,10.4,-,N/A,Fog,Fog,200,2013-03-11 05:35:00
12:55 AM,37.8,35.8,93,29.62,0.2,SW,8.1,-,N/A,Snow,Light Snow,220,2013-03-11 05:55:00
1:15 AM,39.2,37.4,93,29.62,0.5,SW,10.4,-,N/A,Fog,Fog,220,2013-03-11 06:15:00
1:35 AM,39.2,36.7,91,29.62,0.2,SW,11.5,-,N/A,Fog,Fog,220,2013-03-11 06:35:00
1:55 AM,38.3,36.1,92,29.62,0.2,SW,6.9,-,N/A,Fog,Fog,220,2013-03-11 06:55:00
2:15 AM,37.6,35.6,93,29.62,0.5,WSW,6.9,-,N/A,Fog,Fog,240,2013-03-11 07:15:00
2:35 AM,37.4,35.4,93,29.62,0.2,WSW,8.1,-,N/A,Fog,Fog,240,2013-03-11 07:35:00
2:55 AM,36.9,34.7,92,29.62,0.2,WSW,6.9,-,N/A,Fog,Fog,240,2013-03-11 07:55:00
3:15 AM,35.2,33.1,92,29.62,0.2,South,3.5,-,N/A,Fog,Fog,180,2013-03-11 08:15:00
3:35 AM,35.1,32.9,92,29.62,0.2,WSW,4.6,-,N/A,Fog,Fog,240,2013-03-11 08:35:00
3:55 AM,36.3,34.0,91,29.61,0.5,West,9.2,-,0.01,,Light Drizzle,280,2013-03-11 08:55:00
4:15 AM,35.6,33.3,91,29.59,0.5,West,6.9,-,N/A,Fog,Fog,280,2013-03-11 09:15:00
4:35 AM,35.1,32.9,92,29.59,0.5,West,5.8,-,N/A,Fog,Fog,270,2013-03-11 09:35:00
4:55 AM,35.6,33.8,93,29.58,0.8,West,4.6,-,N/A,,Overcast,270,2013-03-11 09:55:00
5:15 AM,35.1,32.9,92,29.57,1.0,Calm,Calm,-,N/A,,Overcast,0,2013-03-11 10:15:00
5:35 AM,35.1,32.9,92,29.57,0.5,Calm,Calm,-,N/A,Fog,Fog,0,2013-03-11 10:35:00
5:55 AM,35.1,32.9,92,29.58,0.8,Calm,Calm,-,N/A,,Overcast,0,2013-03-11 10:55:00
6:15 AM,34.2,32.2,92,29.60,0.8,South,4.6,-,N/A,,Drizzle,170,2013-03-11 11:15:00
6:35 AM,33.8,32.0,93,29.60,0.8,Calm,Calm,-,N/A,,Light Drizzle,0,2013-03-11 11:35:00
6:55 AM,33.8,32.0,93,29.61,0.8,SSE,8.1,-,N/A,,Overcast,150,2013-03-11 11:55:00
7:15 AM,34.0,32.0,92,29.61,0.8,South,4.6,-,N/A,,Overcast,170,2013-03-11 12:15:00
7:35 AM,33.8,32.0,93,29.60,0.2,South,3.5,-,N/A,Rain,Rain,170,2013-03-11 12:35:00
7:55 AM,33.8,32.0,93,29.61,0.2,South,5.8,-,0.01,,Light Drizzle,190,2013-03-11 12:55:00
8:15 AM,34.0,32.0,92,29.61,0.2,South,8.1,-,N/A,,Drizzle,180,2013-03-11 13:15:00
8:35 AM,34.2,32.0,92,29.60,0.2,SSW,6.9,-,0.01,Rain,Rain,210,2013-03-11 13:35:00
8:55 AM,35.1,32.9,92,29.60,3.0,WSW,10.4,-,0.02,Rain,Rain,240,2013-03-11 13:55:00
9:15 AM,34.9,32.9,92,29.59,5.0,WSW,10.4,-,N/A,,Overcast,240,2013-03-11 14:15:00
9:35 AM,34.3,32.2,92,29.59,4.0,WSW,8.1,-,N/A,,Overcast,240,2013-03-11 14:35:00
9:55 AM,33.8,32.0,93,29.59,0.8,SW,10.4,-,N/A,,Overcast,220,2013-03-11 14:55:00
10:15 AM,33.8,32.0,93,29.59,0.5,SW,9.2,-,N/A,Fog,Fog,220,2013-03-11 15:15:00
10:35 AM,33.8,32.0,93,29.59,0.8,SW,13.8,-,N/A,,Overcast,220,2013-03-11 15:35:00
10:55 AM,33.3,31.5,93,29.58,0.8,SW,10.4,-,N/A,,Overcast,220,2013-03-11 15:55:00
11:15 AM,33.1,31.1,92,29.58,0.8,SW,9.2,-,N/A,,Overcast,220,2013-03-11 16:15:00
11:35 AM,32.9,31.1,93,29.59,0.8,SSW,11.5,-,N/A,,Light Drizzle,200,2013-03-11 16:35:00
11:55 AM,32.9,31.1,93,29.58,1.2,SSW,10.4,-,0.01,Rain,Rain,210,2013-03-11 16:55:00
12:15 PM,32.9,31.1,93,29.57,1.5,SW,9.2,-,N/A,Rain,Light Rain,220,2013-03-11 17:15:00
12:35 PM,32.9,31.1,93,29.56,1.8,SW,10.4,-,N/A,Rain,Light Rain,220,2013-03-11 17:35:00
12:55 PM,32.9,31.1,93,29.56,1.5,SW,10.4,-,N/A,Rain,Light Rain,230,2013-03-11 17:55:00
1:15 PM,32.9,31.1,93,29.56,1.5,SW,10.4,-,N/A,Rain,Light Rain,230,2013-03-11 18:15:00
1:35 PM,32.9,31.1,93,29.56,1.8,WSW,11.5,17.3,N/A,,Overcast,250,2013-03-11 18:35:00
1:55 PM,32.5,31.1,94,29.55,1.2,West,11.5,-,N/A,Snow,Light Snow,280,2013-03-11 18:55:00
2:15 PM,32.5,30.7,93,29.55,2.5,West,13.8,-,N/A,Snow,Light Snow,280,2013-03-11 19:15:00
2:35 PM,32.7,30.9,93,29.56,5.0,West,16.1,-,N/A,Snow,Light Snow,280,2013-03-11 19:35:00
2:55 PM,32.5,30.7,93,29.56,5.0,West,15.0,-,N/A,Snow,Light Snow,280,2013-03-11 19:55:00
3:15 PM,32.5,30.7,93,29.56,2.0,West,17.3,21.9,N/A,Snow,Light Snow,280,2013-03-11 20:15:00
3:35 PM,32.0,30.0,92,29.57,4.0,West,15.0,23.0,N/A,,Overcast,280,2013-03-11 20:35:00
3:55 PM,32.0,29.8,92,29.58,10.0,West,13.8,20.7,N/A,,Overcast,280,2013-03-11 20:55:00
4:15 PM,31.6,29.7,92,29.60,10.0,West,16.1,-,N/A,,Overcast,270,2013-03-11 21:15:00
4:35 PM,31.6,29.5,92,29.61,10.0,West,13.8,-,N/A,,Overcast,280,2013-03-11 21:35:00
4:55 PM,31.3,29.3,92,29.61,10.0,West,17.3,24.2,N/A,,Overcast,270,2013-03-11 21:55:00
5:15 PM,31.1,29.3,93,29.63,5.0,West,15.0,-,N/A,,Overcast,260,2013-03-11 22:15:00
5:35 PM,31.1,29.1,92,29.63,5.0,West,13.8,20.7,N/A,,Overcast,270,2013-03-11 22:35:00
5:55 PM,31.1,28.9,92,29.64,5.0,West,15.0,-,N/A,,Overcast,270,2013-03-11 22:55:00
6:15 PM,30.9,28.8,92,29.66,7.0,West,16.1,21.9,N/A,Snow,Light Snow,270,2013-03-11 23:15:00
6:35 PM,30.7,28.4,91,29.67,10.0,West,13.8,19.6,N/A,,Overcast,270,2013-03-11 23:35:00
6:55 PM,30.9,28.8,92,29.68,10.0,West,10.4,-,N/A,,Overcast,270,2013-03-11 23:55:00
7:15 PM,30.9,28.9,92,29.68,10.0,West,10.4,17.3,N/A,,Overcast,280,2013-03-12 00:15:00
7:35 PM,30.9,28.9,92,29.69,10.0,West,13.8,-,N/A,,Overcast,270,2013-03-12 00:35:00
7:55 PM,30.9,28.8,92,29.70,10.0,West,16.1,19.6,N/A,,Overcast,280,2013-03-12 00:55:00
8:15 PM,31.1,28.9,92,29.71,10.0,West,15.0,23.0,N/A,,Overcast,280,2013-03-12 01:15:00
8:35 PM,31.1,29.1,92,29.72,10.0,West,12.7,-,N/A,,Overcast,270,2013-03-12 01:35:00
8:55 PM,31.1,29.1,92,29.73,10.0,West,16.1,-,N/A,,Overcast,270,2013-03-12 01:55:00
9:15 PM,31.6,29.3,91,29.74,10.0,West,10.4,-,N/A,,Overcast,260,2013-03-12 02:15:00
9:35 PM,31.1,28.9,92,29.74,10.0,West,16.1,-,N/A,,Overcast,270,2013-03-12 02:35:00
9:55 PM,31.5,28.9,90,29.76,10.0,West,13.8,-,N/A,,Overcast,260,2013-03-12 02:55:00
10:15 PM,31.1,28.4,90,29.76,10.0,West,16.1,20.7,N/A,,Overcast,270,2013-03-12 03:15:00
10:35 PM,31.1,28.4,90,29.77,10.0,West,13.8,19.6,N/A,,Overcast,280,2013-03-12 03:35:00
10:55 PM,30.9,28.2,90,29.78,7.0,West,15.0,18.4,N/A,,Overcast,270,2013-03-12 03:55:00
11:15 PM,30.7,27.5,88,29.79,10.0,West,15.0,-,N/A,,Overcast,270,2013-03-12 04:15:00
11:35 PM,30.6,27.3,88,29.79,7.0,West,18.4,23.0,N/A,,Overcast,260,2013-03-12 04:35:00
11:55 PM,30.2,27.0,88,29.79,10.0,West,16.1,21.9,N/A,,Overcast,260,2013-03-12 04:55:00